Weather in Svobodny

Russia / Saratov Oblast     52°19′51″N   46°22′02″E
temp.,
°C
wind,
m/s
gust,
m/s
humid.,
%
clouds,
%
prec.,
mm/h
press.,
hPa
HPBL,
m
28 october, thu
thu2801:00+3wsw614450 0.0 1020421
04:00+2wsw61451100 0.0 1019358
07:00+2wsw4959100 0.0 1019270
10:00+4wsw4862100 0.0 1019260
13:00+7wsw5761100 0.0 1018567
16:00+7wsw5866100 0.0 1017755
19:00+6sw4107398 0.0 1017466
22:00+5wsw5983100 0.3 1016776
29 october, fri
fri2901:00+5wsw4990100 1.2 1016562
04:00+6wnw4893100 1.3 1017502
07:00+6n4891100 0.0 1020593
10:00+7n587992 0.0 1023633
13:00+9ne556337 0.0 10251011
16:00+8nne335873 0.0 10271068
19:00+5ese117020 0.0 102910
22:00+4sw117663 0.0 103011
30 october, sat
sat3001:00+4sw237974 0.0 103036
04:00+4wsw3579100 0.0 1030123
07:00+3wsw37845 0.0 1031144
10:00+6w511735 0.0 1031353
13:00+10w696360 0.0 1030593
16:00+11w51067100 0.0 1029546
19:00+8w512825 0.0 1030301
22:00+7wnw613875 0.0 1030260
31 october, sun
sun3101:00+6wnw512901 0.0 1031232
04:00+6wnw5129015 0.0 1031218
07:00+5wnw48905 0.0 1032141
10:00+8wnw49712 0.0 1032241
13:00+12wnw57505 0.0 1031423
16:00+13w47525 0.0 1030411
19:00+8wnw36725 0.0 103194
22:00+7wnw358054 0.0 103178
1 november, mon
mon101:00+6w34836 0.0 103168
04:00+5w34835 0.0 103154
07:00+5w34855 0.0 103056
10:00+8w35700 0.0 1030145
13:00+12wsw34530 0.0 1029416
16:00+12wsw24520 0.0 1027267
19:00+9wsw22670 0.0 102712
22:00+7wsw22720 0.0 102712